Location: Breungeshain
(50.5000°N, 9.2000°E)
Time: 03:15:08
(UTC+00:00)

ISS - Pass Details

Date: 25 May 2018
Orbit: 402 x 407 km, 51.6° (Epoch: 25 May)

Event Time Altitude Azimuth Distance (km) Brightness Sun altitude
Rises 19:58:39 0° 243° (WSW) 2,315 0.3 -5.8°
Reaches altitude 10° 20:00:44 10° 240° (WSW) 1,457 -0.8 -6.1°
Maximum altitude 20:03:58 63° 159° (SSE) 454 -3.8 -6.4°
Drops below altitude 10° 20:07:12 10° 77° (ENE) 1,460 -1.3 -6.8°
Sets 20:09:18 0° 74° (ENE) 2,321 -0.3 -7.0°
